KB4QOR Weather Reports


time (UTC)temp
C
wind
direction
speed
KPH
gust
KPH
rain 1hr
cm
rain 24hr
cm
rain mn
cm
humidity
%
barometer
mb
20260906104536 22 0 0.0 0.0 0.00 0.43 0.00 100 1013.8
20260906103047 22 0 0.0 0.0 0.00 0.43 0.00 100 1013.7
20260906101533 22 0 0.0 0.0 0.00 0.43 0.00 100 1013.5
20260906100034 22 0 0.0 0.0 0.00 0.43 0.00 100 1013.3
20260906094536 22 0 0.0 0.0 0.00 0.43 0.00 100 1013.2
20260906093039 22 0 0.0 0.0 0.00 0.43 0.00 100 1013.2
20260906091533 22 0 0.0 0.0 0.00 0.43 0.00 100 1013.2
20260906090052 22 0 0.0 0.0 0.00 0.43 0.00 100 1013.0
20260906084533 22 0 0.0 0.0 0.00 0.43 0.00 100 1013.1
20260906083038 22 0 0.0 0.0 0.00 0.43 0.00 100 1013.0
20260906081534 22 0 0.0 0.0 0.00 0.43 0.00 100 1013.0
20260906080036 23 0 0.0 0.0 0.00 0.43 0.00 100 1012.8
20260906074536 23 0 0.0 0.0 0.00 0.43 0.00 100 1012.9
20260906073040 23 0 0.0 0.0 0.00 0.43 0.00 100 1013.0
20260906071536 23 0 0.0 0.0 0.00 0.43 0.00 100 1013.3
20260906070041 23 0 0.0 0.0 0.00 0.43 0.00 100 1013.3
20260906064535 23 0 0.0 0.0 0.00 0.43 0.00 100 1013.2
20260906063045 23 0 0.0 0.0 0.00 0.43 0.00 100 1013.4
20260906061534 23 0 0.0 0.0 0.00 0.43 0.00 100 1013.3
20260906060034 23 0 0.0 0.0 0.00 0.43 0.00 100 1013.2
20260906054537 23 0 0.0 0.0 0.00 0.43 0.00 100 1013.3
20260906053033 24 0 0.0 0.0 0.00 0.43 0.00 100 1013.3
20260906051552 24 0 0.0 0.0 0.00 0.43 0.00 100 1013.3
20260906050041 24 0 0.0 0.0 0.00 0.43 0.00 100 1013.4
20260906044541 24 0 0.0 0.0 0.00 0.43 0.00 100 1013.2
20260906043047 24 0 0.0 0.0 0.00 0.43 0.00 100 1013.4
20260906041536 24 0 0.0 0.0 0.00 0.43 0.00 100 1013.4
20260906040038 24 0 0.0 0.0 0.00 0.43 0.00 100 1013.3
20260906034540 24 0 0.0 0.0 0.00 0.43 0.43 100 1013.3
20260906033037 25 0 0.0 0.0 0.00 0.43 0.43 100 1013.1
20260906031539 25 0 0.0 0.0 0.00 0.43 0.43 100 1012.5
20260906030034 25 0 0.0 0.0 0.00 0.43 0.43 100 1012.7
20260906024534 25 0 0.0 0.0 0.00 0.43 0.43 100 1012.7
20260906023037 25 0 0.0 0.0 0.00 0.43 0.43 100 1012.9
20260906021535 25 0 0.0 0.0 0.00 0.43 0.43 100 1012.7
20260906020039 25 0 0.0 0.0 0.00 0.43 0.43 100 1012.4
20260906014535 26 0 0.0 0.0 0.00 0.43 0.43 100 1012.4
20260906013055 26 0 0.0 0.0 0.00 0.43 0.43 100 1012.3
20260906011544 26 0 0.0 0.0 0.00 0.43 0.43 4 1012.1
20260906010038 26 0 0.0 0.0 0.00 0.43 0.43 10 1012.0
20260906004534 27 0 0.0 0.0 0.03 0.43 0.43 16 1012.1
20260906003037 27 0 0.0 0.0 0.13 0.43 0.43 27 1012.0
20260906001535 28 0 0.0 0.0 0.13 0.43 0.43 46 1012.5
20260906000037 30 0 0.0 0.0 0.13 0.43 0.43 58 1012.7
20260905234535 31 0 0.0 0.0 0.10 0.41 0.41 63 1013.2
20260905233040 32 0 0.0 0.0 0.00 0.30 0.30 62 1013.0
20260905231534 33 0 0.0 0.0 0.00 0.30 0.30 61 1012.7
20260905230041 35 0 0.0 0.0 0.00 0.30 0.30 60 1012.5
20260905224536 36 0 0.0 0.0 0.00 0.30 0.30 57 1012.2
20260905223041 37 0 0.0 0.0 0.00 0.30 0.30 56 1012.3
20260905221534 38 0 0.0 0.0 0.00 0.30 0.30 52 1012.3
20260905220037 38 0 0.0 0.0 0.00 0.30 0.30 54 1012.1
20260905214539 38 0 0.0 0.0 0.00 0.30 0.30 53 1012.4
20260905213037 38 0 0.0 0.0 0.00 0.30 0.30 55 1012.4
20260905211539 38 0 0.0 0.0 0.00 0.30 0.30 52 1012.4
20260905210047 38 0 0.0 0.0 0.00 0.30 0.30 51 1012.5
20260905204535 38 0 0.0 0.0 0.00 0.30 0.30 55 1012.5
20260905203049 38 0 0.0 0.0 0.00 0.30 0.30 53 1012.7
20260905201535 37 0 0.0 0.0 0.00 0.30 0.30 54 1012.9
20260905200037 37 0 0.0 0.0 0.00 0.30 0.30 55 1013.1
20260905194535 37 0 0.0 0.0 0.00 0.30 0.30 56 1013.4
20260905193036 36 0 0.0 0.0 0.00 0.30 0.30 55 1013.6
20260905191539 36 0 0.0 0.0 0.00 0.30 0.30 56 1013.7
20260905190035 35 0 0.0 0.0 0.00 0.30 0.30 58 1013.9
20260905184545 35 0 0.0 0.0 0.00 0.30 0.30 58 1014.0
20260905183033 33 0 0.0 0.0 0.00 0.30 0.30 60 1014.3
20260905181540 33 0 0.0 0.0 0.00 0.30 0.30 62 1014.6
20260905180038 31 0 0.0 0.0 0.00 0.30 0.30 63 1014.6
20260905174537 30 0 0.0 0.0 0.00 0.30 0.30 63 1014.8
20260905173037 29 0 0.0 0.0 0.00 0.30 0.30 60 1014.7
20260905171550 28 0 0.0 0.0 0.00 0.30 0.30 52 1014.9
20260905170033 27 0 0.0 0.0 0.00 0.30 0.30 44 1015.2
20260905164544 27 0 0.0 0.0 0.00 0.30 0.30 11 1015.4
20260905163041 26 0 0.0 0.0 0.00 0.30 0.30 100 1015.5
20260905161537 26 0 0.0 0.0 0.00 0.30 0.30 100 1015.3
20260905160038 25 0 0.0 0.0 0.00 0.30 0.30 100 1015.4
20260905154540 24 0 0.0 0.0 0.00 0.30 0.30 100 1015.4
20260905153033 24 0 0.0 0.0 0.00 0.30 0.30 100 1015.6
20260905151540 23 0 0.0 0.0 0.00 0.30 0.30 100 1015.9
20260905150045 23 0 0.0 0.0 0.00 0.30 0.30 100 1015.8
20260905144538 23 0 0.0 0.0 0.00 0.30 0.30 100 1016.0
20260905143038 23 0 0.0 0.0 0.00 0.30 0.30 100 1016.1
20260905141536 22 0 0.0 0.0 0.00 0.30 0.30 100 1016.3
20260905140037 22 0 0.0 0.0 0.00 0.30 0.30 100 1016.5
20260905134536 22 0 0.0 0.0 0.00 0.30 0.30 100 1016.4
20260905133033 22 0 0.0 0.0 0.03 0.30 0.30 100 1016.4
20260905131538 22 0 0.0 0.0 0.03 0.30 0.30 100 1016.2
20260905130034 22 0 0.0 0.0 0.30 0.30 0.30 100 1016.2
20260905124537 23 0 0.0 0.0 0.30 0.30 0.30 100 1016.3
20260905123039 23 0 0.0 0.0 0.28 0.28 0.28 100 1015.8
20260905121539 23 0 0.0 0.0 0.28 0.28 0.28 100 1015.9
20260905120041 23 0 0.0 0.0 0.00 0.00 0.00 100 1016.3
20260905114535 24 0 0.0 0.0 0.00 0.00 0.00 100 1015.5
20260905113037 24 0 0.0 0.0 0.00 0.00 0.00 100 1015.5
20260905111545 24 0 0.0 0.0 0.00 0.00 0.00 100 1015.2
20260905110039 25 0 0.0 0.0 0.00 0.00 0.00 100 1014.8